Location: Mauries
(43.6188°N, 0.3322°W)
Time: 02:11:55
(UTC+00:00)

TIGRISAT - Visible Passes

Search period start: 16 May 2026 00:00
Search period end: 26 May 2026 00:00
Orbit: 579 x 648 km, 97.8° (Epoch: 14 May)

Date Brightness Start Highest point End Pass type
(mag) Time Alt. Az. Time Alt. Az. Time Alt. Az.
16 May ? 02:48:11 10° SSE 02:52:36 69° ENE 02:56:59 10° N visible
17 May ? 01:31:02 10° E 01:32:30 11° ENE 01:33:57 10° NE visible
17 May ? 03:03:24 10° S 03:07:51 82° WSW 03:12:16 10° NNW visible
18 May ? 01:44:53 10° E 01:47:34 16° ENE 01:50:13 10° NNE visible
18 May ? 03:18:46 10° S 03:23:07 56° W 03:27:26 10° NNW visible
19 May ? 01:59:17 10° ESE 02:02:40 22° ENE 02:06:01 10° NNE visible
19 May ? 03:34:18 10° SSW 03:38:25 38° W 03:42:32 10° NNW visible
20 May ? 02:13:57 10° SE 02:17:48 30° ENE 02:21:36 10° N visible
20 May ? 03:50:01 10° SSW 03:53:45 27° W 03:57:28 10° NW visible
21 May ? 02:28:48 10° SE 02:32:57 43° ENE 02:37:04 10° N visible
22 May ? 02:43:48 10° SSE 02:48:09 62° ENE 02:52:26 10° N visible
23 May ? 01:27:40 10° ENE 01:28:04 10° ENE 01:28:27 10° NE visible
23 May ? 02:58:58 10° SSE 03:03:22 90° NNE 03:07:43 10° NNW visible
24 May ? 01:40:47 10° E 01:43:06 14° ENE 01:45:24 10° NNE visible
24 May ? 03:14:16 10° S 03:18:36 62° W 03:22:54 10° NNW visible
25 May ? 01:55:02 10° ESE 01:58:10 20° ENE 02:01:17 10° NNE visible
25 May ? 03:29:44 10° S 03:33:53 42° W 03:37:59 10° NNW visible
